RH
63 55 49 45 41 40 39 39 42 39 37 41 39 37 36 34 35 31 28 28 29 26 23 24 22 24 26 27 28 24 33 36 35 41 42 42 38 36 36 30 26 21 15 14 12 16 21 20 20 20 21 20 18 17 16 16 15 14 14 16 20 22 22 22 23 24 24 24 25 25 25 26 26 27 27 27 27 27 27 27 26 26 25 24 23 21 20 18 15 13 10 9 8 6 4 9 20
66 59 52 47 45 45 42 39 43 43 38 37 35 34 32 30 32 30 28 28 29 26 22 22 22 23 25 27 28 24 33 36 33 41 43 39 41 40 34 31 26 19 17 15 12 16 19 19 18 18 19 18 17 15 15 15 14 14 14 13 15 18 21 23 22 23 24 24 24 25 25 26 26 26 27 27 27 27 27 27 27 26 25 23 22 20 18 16 11 8 7 7 8 6 3 9 19
68 62 53 49 47 46 44 42 42 43 40 36 31 28 27 27 29 28 29 30 27 25 22 22 23 23 23 26 26 25 32 35 32 38 41 40 41 39 34 33 28 20 17 16 14 15 16 16 17 17 16 16 15 14 14 14 14 14 14 14 13 13 17 21 23 23 23 23 24 25 25 26 26 26 26 27 27 27 27 27 27 26 25 23 21 19 17 14 9 6 6 6 7 5 4 8 17
72 65 57 51 49 47 45 45 43 41 40 37 31 25 20 22 28 28 28 28 25 24 22 21 21 21 22 25 25 26 29 32 33 32 36 40 37 35 35 35 32 24 18 17 15 15 15 14 15 15 15 15 14 14 14 14 14 14 14 14 13 13 13 16 21 23 23 24 25 25 25 26 26 26 27 27 27 27 27 26 26 25 24 22 20 17 15 12 8 5 5 7 6 4 6 9 17
75 70 63 56 52 49 46 45 43 40 38 35 32 28 21 20 26 29 27 24 22 23 22 20 22 21 21 24 25 28 30 31 34 31 33 39 35 34 37 37 35 28 20 18 17 16 16 15 15 15 16 15 15 14 14 14 13 13 13 13 13 13 13 14 18 21 23 24 25 25 26 26 26 27 27 26 26 26 26 26 25 24 22 20 18 15 13 9 5 4 4 7 7 4 6 12 19
74 72 66 59 54 50 48 46 43 41 36 33 33 32 27 23 25 28 24 19 20 23 22 21 22 20 20 23 25 30 32 31 33 34 35 38 34 33 38 38 38 33 24 20 18 17 17 17 17 16 16 15 15 14 14 13 13 13 13 13 12 12 12 13 17 19 22 24 25 25 26 27 27 27 26 26 26 26 25 25 24 22 21 19 17 14 11 7 4 4 4 7 7 4 6 13 19
72 70 65 61 58 54 52 49 45 42 37 34 34 34 31 28 26 24 20 17 20 22 21 20 20 21 22 22 26 31 31 31 32 31 33 35 34 34 38 39 38 36 30 24 21 19 18 19 19 18 17 15 14 14 14 13 12 12 11 11 10 11 10 13 18 19 21 23 24 25 26 27 27 26 26 26 26 25 25 24 22 21 20 18 15 12 8 5 4 5 5 6 7 5 6 12 18
73 70 66 64 63 59 57 53 49 45 40 36 36 36 32 30 27 24 20 17 21 21 19 19 19 22 24 22 28 33 29 28 29 28 30 33 34 35 38 40 39 37 35 29 23 21 21 21 20 20 18 17 15 13 12 11 10 9 9 9 8 9 10 15 20 18 20 23 24 26 26 26 26 26 26 26 25 25 24 22 21 20 18 16 12 9 6 5 5 5 6 6 6 6 6 11 17
78 73 71 69 67 63 60 56 53 49 44 38 36 38 33 29 25 22 19 16 20 22 19 17 18 24 24 25 32 32 28 29 28 29 31 33 34 35 38 42 39 38 37 33 26 23 24 23 22 22 21 20 17 15 13 12 11 10 10 8 8 7 10 17 20 20 20 22 24 26 26 26 26 25 25 25 25 24 23 22 20 19 15 12 9 7 6 6 6 6 7 6 6 6 6 9 14
82 78 76 74 71 69 66 60 56 52 48 42 38 38 36 31 23 20 18 16 19 22 21 17 17 23 24 27 32 32 34 36 32 31 35 35 35 36 39 42 41 39 38 36 30 27 27 25 25 24 24 22 20 18 17 16 16 15 13 11 10 9 11 17 19 21 21 21 24 25 25 25 25 25 25 25 24 24 23 20 17 14 11 9 7 7 7 8 8 7 7 6 6 6 7 8 13
87 83 80 82 79 76 73 66 61 56 52 48 42 38 36 31 22 19 18 16 19 21 23 19 17 22 24 27 32 36 39 40 35 33 36 37 37 39 41 42 43 41 38 37 33 30 29 27 27 26 25 23 21 21 20 21 20 19 18 16 15 14 17 20 20 22 22 23 24 25 25 25 26 26 25 25 24 23 20 16 13 10 9 8 9 9 9 9 9 8 7 7 7 7 7 7 12
92 89 86 90 87 81 76 71 66 59 56 54 49 41 37 31 22 20 19 16 17 21 23 21 19 20 23 28 35 36 36 38 36 33 36 38 38 40 41 42 44 42 38 37 35 33 31 28 29 28 27 25 23 23 23 23 23 22 21 18 17 19 23 24 24 25 24 25 24 25 26 27 28 27 26 26 24 21 17 13 11 10 10 11 12 11 11 10 9 8 8 8 9 9 8 7 10
93 92 92 93 88 84 79 74 69 64 60 58 56 49 41 33 25 22 22 19 17 20 23 23 21 19 23 30 36 32 31 39 38 35 38 40 39 40 41 42 44 44 41 38 36 36 34 30 30 29 28 26 24 24 24 25 25 24 22 19 18 21 25 26 27 28 28 28 27 27 28 28 29 29 28 27 23 18 15 13 11 11 13 15 14 12 11 10 10 9 9 10 11 10 9 8 9
91 90 94 94 89 88 82 77 73 69 64 62 60 54 46 37 30 26 25 22 19 19 23 24 22 21 23 28 33 29 30 38 38 39 41 41 40 39 40 42 43 45 43 41 37 35 34 32 32 31 30 28 26 25 25 26 26 26 23 20 19 22 24 25 27 28 29 29 29 29 30 30 30 30 28 25 20 17 16 15 15 16 17 18 16 13 12 12 12 12 13 13 13 12 10 10 10
89 87 94 95 92 91 84 80 76 73 68 65 63 58 53 44 35 31 28 25 22 20 21 24 23 24 23 24 29 29 30 34 36 40 42 42 40 40 41 41 42 44 44 43 39 36 34 33 33 33 32 31 29 27 27 27 27 27 25 21 20 23 23 23 24 26 27 27 27 29 30 30 30 29 25 21 18 17 18 19 20 22 22 22 19 16 15 15 16 16 15 14 12 12 12 11 11
87 88 96 95 92 91 85 81 79 76 71 67 66 62 59 51 43 37 31 28 25 22 20 22 24 24 24 24 26 26 27 30 34 38 39 41 41 41 42 42 42 44 45 44 42 40 37 35 34 34 34 33 33 31 30 29 29 28 26 23 21 23 24 23 22 23 23 24 24 26 27 27 27 24 20 18 18 18 20 22 24 25 25 25 22 20 18 18 19 18 17 14 12 12 12 11 11
87 90 96 93 90 89 83 80 78 76 72 68 67 66 64 58 50 42 35 30 28 25 21 22 24 24 25 25 24 24 25 26 29 33 35 40 42 41 43 43 44 45 45 45 46 46 43 39 36 36 36 36 35 35 33 31 31 30 29 26 22 22 24 25 24 23 22 21 21 22 23 22 20 16 15 16 18 20 22 24 26 26 27 26 25 22 21 20 20 20 18 15 14 12 11 11 10
90 94 95 90 89 86 80 79 77 75 73 68 65 67 67 64 56 47 40 34 31 27 23 22 23 24 25 25 25 24 24 24 24 26 28 35 40 40 42 46 48 48 46 47 49 48 47 45 42 39 38 39 38 37 36 34 33 33 32 30 26 24 23 25 26 26 25 23 22 22 21 19 15 12 12 13 15 18 21 23 25 27 27 28 28 25 23 22 22 22 20 17 15 15 13 12 11
90 96 95 88 86 83 80 79 78 78 75 69 67 67 67 68 64 52 45 40 35 30 26 24 23 24 25 25 25 24 24 24 24 24 24 29 36 37 40 46 50 50 46 45 48 48 48 50 49 46 43 42 41 40 39 37 36 35 34 33 31 27 25 25 25 26 27 26 26 24 22 19 15 13 13 14 16 17 19 20 22 24 25 27 29 29 27 25 24 23 22 20 18 17 16 14 12
82 90 91 85 83 83 81 80 81 80 78 74 70 67 66 69 69 59 50 47 41 34 30 28 26 25 26 25 26 25 24 25 26 26 23 25 32 36 36 39 42 45 43 41 43 44 46 47 49 50 48 46 44 43 43 41 38 36 36 36 35 33 30 28 26 26 25 25 26 26 24 22 20 19 19 20 20 20 21 21 21 22 22 23 24 26 28 28 27 26 24 23 20 19 17 17 15
68 78 79 76 80 84 82 81 83 82 81 79 74 70 68 69 72 68 60 56 50 41 36 35 32 29 27 27 26 25 25 27 27 27 25 24 30 37 37 35 35 38 40 38 38 39 40 41 42 45 47 48 47 46 46 45 42 40 38 37 36 36 34 33 31 29 28 27 27 27 27 26 26 26 26 25 25 25 24 24 24 24 23 23 22 22 23 25 26 26 25 24 22 20 18 17 15
51 60 63 65 74 81 81 81 83 83 84 81 78 75 72 71 73 74 72 66 61 53 45 41 39 34 31 29 27 27 26 28 28 27 28 25 26 32 36 37 37 36 36 35 35 35 37 39 40 41 43 45 46 46 47 47 46 46 43 40 38 37 37 36 35 34 33 32 31 31 31 31 31 31 30 29 29 30 30 29 28 26 25 25 25 23 22 22 22 23 24 24 23 21 20 17 15
36 42 47 53 59 66 72 77 78 78 81 80 79 76 74 75 74 76 78 74 71 67 58 49 43 39 36 32 30 28 27 28 29 28 28 27 26 26 29 34 39 38 35 34 34 35 37 39 40 41 42 42 42 44 45 44 46 48 47 45 42 41 40 38 38 37 36 36 35 35 35 35 35 35 34 32 32 34 34 34 33 31 29 27 26 27 26 24 22 21 20 21 22 22 21 19 16
29 31 34 39 43 48 56 64 67 69 73 75 78 77 76 78 77 77 79 77 76 75 71 62 50 44 40 37 33 30 28 28 29 30 29 28 28 26 25 28 35 38 37 37 35 35 36 38 40 41 41 41 41 41 42 42 42 44 45 46 46 45 44 42 41 40 39 39 38 38 38 37 38 38 37 36 36 36 37 36 36 35 34 32 30 29 28 28 26 24 22 20 22 23 22 21 18
30 28 28 30 34 39 44 50 55 60 64 68 72 76 77 77 77 78 78 78 78 76 75 71 62 52 44 41 37 33 31 29 28 29 30 29 28 28 27 27 30 36 40 41 40 39 37 37 38 39 40 41 40 39 39 40 41 42 42 43 45 46 46 44 44 44 42 41 41 41 40 40 40 40 41 41 40 39 40 38 37 37 36 37 35 33 31 30 29 27 27 24 24 26 26 25 23
31 27 24 24 27 33 39 43 47 50 55 60 65 70 71 70 72 71 70 73 74 74 74 74 71 63 53 46 41 36 34 34 33 30 29 29 29 29 28 27 27 31 40 43 42 43 42 39 37 37 39 41 40 39 38 39 40 41 40 41 43 44 44 44 44 44 43 42 42 41 40 39 38 38 40 41 42 42 41 39 39 39 37 37 36 36 35 33 31 30 31 29 28 30 29 28 25
29 28 25 22 23 28 32 36 40 43 45 50 56 60 61 62 62 59 59 62 64 67 70 72 74 71 63 56 49 43 38 36 37 36 33 30 30 29 29 28 26 30 40 44 44 44 44 43 40 38 38 40 40 39 39 39 39 40 40 40 40 41 42 42 42 41 41 41 41 40 39 37 35 35 37 38 40 40 39 39 43 47 40 35 36 36 36 36 34 31 31 32 31 31 31 29 26
26 26 26 24 23 24 25 28 32 35 39 41 45 49 51 53 53 51 53 56 57 59 61 65 70 72 70 64 58 53 45 38 34 36 37 35 33 31 29 28 26 28 33 37 40 42 43 45 44 39 36 37 39 39 40 39 39 39 39 40 38 38 38 38 39 38 38 39 38 38 37 36 34 34 34 35 37 37 36 36 43 52 43 36 40 38 34 36 38 37 34 31 32 32 31 30 28
25 25 27 27 26 26 24 24 24 27 31 33 37 41 41 44 46 47 50 52 53 54 55 56 61 66 70 70 67 61 54 46 38 34 35 36 37 35 34 32 30 29 29 30 34 35 36 42 45 41 37 35 36 37 39 40 40 39 38 38 38 37 37 36 37 36 37 37 36 36 36 37 39 43 42 36 34 33 33 33 39 48 43 39 47 43 36 33 36 43 40 33 31 31 30 30 29
23 23 25 27 28 29 26 25 24 23 24 24 29 34 34 37 41 41 43 46 48 51 51 51 53 56 62 68 72 69 62 54 47 41 37 35 36 38 39 38 36 36 37 37 36 34 31 33 37 36 35 32 32 34 37 38 39 39 38 37 36 35 36 36 36 36 37 37 36 36 36 37 41 50 50 39 34 33 33 34 37 41 37 40 50 47 42 35 30 40 46 40 33 30 29 29 30
25 25 26 26 28 27 24 25 27 26 25 22 24 28 29 32 38 39 38 40 43 47 48 48 47 48 51 57 65 70 68 60 52 47 42 38 36 36 37 38 38 39 40 38 35 33 29 26 26 27 27 27 26 28 30 31 34 37 37 36 34 32 33 34 34 33 35 37 37 37 37 37 37 43 44 37 36 35 35 36 36 35 33 39 49 50 50 40 29 35 46 45 39 34 30 29 29
26 30 30 28 28 25 20 22 25 26 27 26 26 28 27 28 32 35 37 38 38 42 44 44 44 43 42 45 53 61 66 65 57 49 46 43 38 36 35 35 37 37 37 35 32 30 28 25 23 22 23 23 22 22 22 24 27 31 34 35 34 34 33 32 31 29 30 35 37 38 38 38 37 37 38 37 38 37 37 37 36 36 34 36 44 50 51 42 30 33 46 47 41 39 36 30 27
25 30 31 28 28 27 23 21 21 22 25 27 27 28 29 29 30 32 35 37 37 39 41 41 42 41 39 40 43 50 58 63 61 55 51 48 43 39 37 35 34 35 34 34 34 32 30 27 25 23 22 21 22 21 21 21 23 26 30 34 36 38 38 34 32 30 30 31 34 37 39 39 36 35 37 38 39 39 39 39 38 38 36 38 47 50 45 38 33 38 48 48 40 39 41 35 28
25 30 31 25 23 25 26 24 23 23 25 26 24 24 27 29 31 30 31 35 37 37 38 39 39 40 40 39 39 42 48 55 58 58 54 49 46 42 38 35 32 31 32 33 34 34 33 31 28 25 23 22 21 21 21 21 21 23 27 31 35 38 39 37 34 34 33 32 34 37 37 38 37 34 36 38 38 37 38 39 40 40 38 40 47 45 38 36 36 38 44 43 38 36 38 37 33
26 30 33 29 25 22 23 25 25 24 25 26 25 24 24 26 28 29 29 31 34 36 37 38 38 38 40 40 40 39 40 45 50 55 55 51 48 44 39 37 34 32 30 30 31 33 33 33 31 28 26 25 24 23 22 22 21 22 24 26 31 35 38 38 36 35 35 35 38 39 37 37 37 34 33 34 33 33 34 37 40 42 40 39 39 37 36 37 37 39 44 47 46 40 35 36 38
26 28 33 34 32 26 24 26 26 25 26 27 25 24 23 22 22 24 27 27 29 32 34 36 37 37 38 39 40 39 39 39 40 45 51 52 53 51 47 42 38 36 33 31 29 29 30 31 31 30 29 27 26 26 25 24 23 23 23 23 25 28 31 33 33 33 35 36 36 37 37 37 37 34 30 29 30 30 32 35 37 39 40 39 38 38 39 39 40 44 52 55 53 46 39 38 40
25 29 31 32 33 30 27 28 28 28 29 27 24 24 23 22 20 21 23 25 27 30 32 34 35 37 38 39 40 41 39 38 37 37 39 43 47 51 53 50 44 40 38 36 33 30 28 28 29 30 30 30 28 27 27 27 26 26 25 25 24 24 25 27 27 28 30 33 34 35 36 37 37 33 29 27 28 29 31 33 34 34 36 37 38 38 38 40 43 46 52 58 54 47 43 41 39
29 31 29 28 29 29 27 27 27 28 31 28 25 26 24 22 20 18 19 19 21 25 28 30 31 33 37 39 41 42 42 41 40 38 36 36 38 42 48 53 53 48 43 40 37 35 33 30 29 29 29 30 29 28 28 27 27 28 28 27 27 26 26 26 26 26 28 32 36 38 38 37 37 34 31 30 29 29 31 32 32 31 31 33 35 36 36 40 46 46 48 55 53 48 46 44 38
31 30 29 26 21 22 24 23 22 26 32 31 27 27 24 19 17 14 13 12 12 14 17 19 20 22 26 31 36 40 42 43 43 43 42 40 39 39 41 46 51 54 52 49 44 41 38 35 33 31 30 30 30 30 29 28 27 28 28 29 30 31 32 32 30 30 31 34 36 37 38 37 36 35 33 33 34 34 33 32 31 30 30 29 30 31 31 34 43 48 49 50 49 47 48 45 38
24 23 25 25 20 24 26 25 27 30 34 34 32 30 23 17 15 12 10 9 8 8 9 11 12 13 15 19 23 28 33 37 41 43 43 43 43 41 38 39 42 46 51 54 54 53 48 44 40 36 34 32 31 31 32 32 30 29 28 29 30 33 36 39 39 38 36 35 34 34 35 35 34 34 33 35 37 38 37 35 33 32 31 30 29 28 27 28 33 41 48 50 49 48 48 46 41
23 23 24 23 25 31 31 32 35 34 36 34 31 34 27 19 19 16 12 11 9 9 8 9 9 10 11 13 15 18 22 27 33 36 39 42 43 43 42 40 39 39 41 45 50 54 55 54 51 47 42 38 34 31 30 31 32 31 30 30 30 31 33 36 40 43 41 38 35 34 35 36 37 36 35 35 36 37 39 39 37 35 33 32 31 29 28 27 28 31 38 46 50 49 49 47 46
31 30 29 26 29 32 33 34 36 36 36 28 28 43 40 26 25 26 20 16 13 11 11 10 9 9 10 10 11 13 16 20 25 30 34 37 39 42 43 43 42 41 39 38 40 43 47 51 53 53 51 47 43 39 34 31 30 30 30 30 30 31 31 30 32 36 39 39 37 36 37 37 38 38 37 34 34 36 37 38 38 37 35 34 34 33 32 30 29 28 31 37 44 49 49 47 47
38 33 30 32 35 37 37 36 35 37 36 30 33 48 48 33 26 27 26 23 18 14 12 11 10 10 9 10 10 12 13 15 18 22 26 30 34 36 37 38 39 40 40 39 39 39 40 41 44 47 49 50 49 49 46 41 36 31 29 28 29 29 30 30 30 30 32 34 35 36 37 37 37 37 37 34 32 33 34 35 36 36 35 34 34 34 34 33 32 30 29 31 37 46 49 48 47
38 32 29 33 36 38 40 37 37 36 33 33 33 36 44 39 25 22 24 23 21 17 14 12 10 10 11 11 12 12 13 13 14 15 18 22 26 30 33 34 35 37 38 39 40 40 40 40 40 40 43 45 47 49 50 49 46 42 36 32 30 29 28 28 28 28 29 30 31 33 35 36 35 35 34 33 32 30 30 31 32 33 33 33 32 32 32 33 35 34 31 30 35 44 46 46 46
37 34 32 31 32 36 36 37 42 40 40 43 33 29 42 42 26 23 27 25 25 21 17 13 10 11 14 13 14 14 14 14 13 14 15 17 20 24 29 32 33 35 36 36 38 38 39 40 41 40 40 41 43 45 46 47 47 46 43 39 35 33 31 29 28 27 27 28 28 29 30 31 32 33 32 31 31 30 29 28 28 28 28 28 28 29 30 33 36 37 34 30 30 36 40 42 45
38 36 34 32 32 35 35 40 42 40 48 49 35 31 43 42 29 28 30 28 25 21 17 14 12 13 15 14 16 16 15 15 15 15 16 17 19 22 25 26 28 31 34 35 36 37 38 38 39 40 40 41 42 42 44 44 44 44 43 42 40 36 34 33 33 31 28 27 26 26 26 26 27 29 30 30 29 29 29 28 26 24 23 23 24 26 28 31 35 38 38 34 28 29 38 44 46
41 39 39 36 36 35 36 42 41 48 56 45 30 31 41 45 35 26 26 25 22 19 16 16 15 15 15 15 16 16 15 16 16 16 17 18 19 21 23 23 23 25 28 32 34 35 36 37 38 39 39 40 41 41 42 43 43 43 42 41 40 38 35 33 33 33 32 31 29 27 26 25 24 25 26 27 27 28 28 28 27 25 24 24 24 25 25 27 32 36 39 39 37 38 42 46 46
40 41 40 43 45 43 47 48 46 59 57 35 29 31 38 46 35 21 22 21 19 19 17 17 18 16 15 16 16 17 17 17 16 17 18 18 19 18 18 17 17 18 20 24 28 30 33 35 37 38 39 39 40 40 41 42 42 43 43 42 40 39 37 35 33 31 30 30 31 30 29 28 27 26 25 25 26 27 28 29 28 28 27 26 25 24 24 25 29 33 35 36 40 44 45 44 45
39 43 45 52 51 49 60 59 53 59 47 30 32 33 40 45 28 17 20 20 21 22 19 20 20 18 17 17 18 17 17 16 16 17 17 15 15 13 12 12 12 13 15 16 19 22 26 29 32 35 37 38 39 39 39 40 40 41 42 42 42 40 38 37 35 33 31 29 28 29 29 30 30 29 29 28 28 28 29 30 29 29 29 27 25 24 24 26 29 31 31 31 33 38 41 42 41
36 40 45 53 48 45 55 53 52 57 44 32 33 38 50 47 25 17 16 17 23 22 20 22 21 20 20 18 17 16 15 15 15 15 15 15 13 11 11 11 11 12 13 14 15 17 20 23 26 29 31 33 35 37 38 38 39 39 40 40 41 42 41 39 37 35 34 32 31 30 29 29 29 29 31 31 32 33 34 33 31 30 30 29 27 25 24 27 31 33 32 30 29 30 33 36 38
33 30 34 43 38 34 38 36 42 49 41 38 44 50 57 48 34 29 20 19 26 24 24 25 21 21 20 17 15 15 16 15 15 15 15 15 15 14 13 11 11 12 13 14 15 15 16 17 20 22 25 27 29 32 33 35 37 38 39 39 39 39 40 40 39 37 36 35 34 34 32 30 29 29 29 30 31 33 35 36 34 32 30 30 30 28 27 28 30 33 34 33 32 29 28 30 32
41 36 41 44 35 30 33 34 38 42 45 52 55 55 49 40 37 34 26 25 26 26 26 23 21 20 18 17 16 16 17 17 17 16 16 18 18 18 18 16 15 14 14 15 16 16 16 15 16 17 19 21 23 25 27 29 32 35 37 38 38 39 38 38 39 38 38 37 36 36 35 34 33 32 32 32 32 32 33 35 36 35 32 31 30 30 30 29 29 31 33 34 35 33 31 31 31
46 48 48 41 35 37 43 43 36 37 49 49 44 46 43 37 35 28 24 26 24 24 24 21 21 20 18 19 19 18 20 18 17 16 16 19 20 20 20 18 18 17 17 17 17 17 16 16 16 16 16 17 17 19 20 22 25 28 32 35 37 38 38 38 37 37 37 37 36 36 35 36 36 36 35 35 35 35 36 36 37 38 37 35 32 30 31 31 31 31 31 32 35 35 35 35 35
43 55 49 39 43 49 51 51 43 43 51 39 26 30 32 31 32 26 23 24 23 24 25 24 24 22 21 22 21 21 20 19 19 18 17 18 18 18 17 16 17 18 17 17 16 16 15 15 15 15 16 16 16 17 17 19 20 21 24 28 31 34 35 37 37 37 37 36 36 36 35 36 36 37 37 36 36 36 38 40 42 43 43 40 36 33 31 32 33 33 31 32 34 36 39 39 38
36 49 49 47 54 56 55 58 54 51 54 42 29 29 26 24 25 26 28 27 25 26 26 26 26 24 23 21 20 21 20 19 20 18 18 18 17 17 17 16 16 17 17 17 16 16 15 15 15 15 15 15 16 16 16 17 18 19 20 22 24 27 29 31 33 35 36 36 36 35 35 36 36 36 37 37 38 37 38 40 42 45 45 44 43 41 37 34 34 35 33 33 35 38 42 43 41
36 46 53 52 52 52 53 54 50 48 49 43 37 37 33 26 23 25 28 26 25 27 26 28 29 26 25 22 22 22 20 21 20 19 19 18 17 18 17 18 18 17 18 18 18 17 16 15 15 15 16 16 16 17 16 16 17 17 19 19 21 22 23 25 26 29 31 33 35 35 36 37 37 37 37 37 38 38 38 38 39 41 43 44 47 49 47 42 39 37 34 32 33 37 42 44 43
43 49 56 58 55 50 51 52 48 47 51 47 45 43 33 28 30 30 29 28 29 30 31 32 30 28 28 27 26 24 22 22 21 20 21 20 20 20 19 19 18 17 18 19 20 19 17 16 16 16 17 18 18 19 19 19 18 18 18 18 19 20 20 22 22 24 26 28 30 32 34 36 37 37 39 39 38 37 38 38 38 39 40 41 43 46 49 50 49 46 41 36 34 34 38 42 43
41 44 46 51 55 53 56 57 47 45 52 48 47 48 36 30 34 31 30 32 33 34 35 34 32 31 32 31 29 27 25 23 22 22 23 22 23 23 22 21 19 18 19 20 21 21 20 20 19 19 20 20 21 21 22 23 22 21 20 20 19 19 19 20 20 21 22 24 26 28 30 32 34 35 37 38 39 39 39 39 39 39 39 39 39 40 42 47 52 53 50 47 44 41 40 41 44